TKJ1DJ LTFJ-LTBJ

Flight info

Callsign TKJ1DJ
Flight time 0h 49m
Altitude 24000
Route IVGUS1J/06L IVGUS UM19 OVZOK
Aircraft A21N/M-SDE3FGHIRWY/LB1

Departure

Time 2026-05-01 14:18
Airport Istanbul Sabiha Gökçen International Airport (LTFJ)

Arrival

Time 2026-05-01 15:07
Airport Adnan Menderes International Airport (LTBJ)
Time Latitude Longitude Altitude Speed Heading
2026-05-01 13:34 40.90706 29.31854 321 ft 0 kts 333°
2026-05-01 14:09 40.90703 29.31856 321 ft 2 kts 333°
2026-05-01 14:09 40.90689 29.31865 321 ft 2 kts 332°
2026-05-01 14:09 40.90677 29.31874 321 ft 2 kts 333°
2026-05-01 14:10 40.90663 29.31883 321 ft 2 kts 332°
2026-05-01 14:10 40.90649 29.31892 321 ft 2 kts 332°
2026-05-01 14:10 40.90635 29.31898 321 ft 2 kts
2026-05-01 14:10 40.90620 29.31892 321 ft 2 kts 34°
2026-05-01 14:11 40.90610 29.31878 321 ft 2 kts 64°
2026-05-01 14:11 40.90600 29.31849 321 ft 0 kts 62°
2026-05-01 14:13 40.90601 29.31849 321 ft 0 kts 62°
2026-05-01 14:13 40.90608 29.31907 321 ft 9 kts 107°
2026-05-01 14:13 40.90550 29.31960 321 ft 15 kts 154°
2026-05-01 14:13 40.90473 29.31987 321 ft 9 kts 199°
2026-05-01 14:14 40.90419 29.31882 321 ft 20 kts 244°
2026-05-01 14:14 40.90340 29.31666 321 ft 27 kts 243°
2026-05-01 14:14 40.90256 29.31439 321 ft 26 kts 243°
2026-05-01 14:14 40.90174 29.31216 321 ft 29 kts 245°
2026-05-01 14:15 40.90082 29.30967 321 ft 29 kts 243°
2026-05-01 14:15 40.89993 29.30728 321 ft 28 kts 244°
2026-05-01 14:15 40.89907 29.30491 321 ft 29 kts 244°
2026-05-01 14:15 40.89817 29.30249 321 ft 28 kts 244°
2026-05-01 14:16 40.89732 29.30016 322 ft 27 kts 244°
2026-05-01 14:16 40.89648 29.29790 322 ft 27 kts 244°
2026-05-01 14:16 40.89565 29.29564 322 ft 26 kts 244°
2026-05-01 14:16 40.89485 29.29348 322 ft 21 kts 244°
2026-05-01 14:17 40.89397 29.29259 322 ft 15 kts 167°
2026-05-01 14:17 40.89302 29.29315 322 ft 10 kts 153°
2026-05-01 14:17 40.89288 29.29377 322 ft 8 kts 66°
2026-05-01 14:17 40.89381 29.29631 322 ft 66 kts 63°
2026-05-01 14:18 40.89687 29.30466 322 ft 132 kts 63°
2026-05-01 14:18 40.90145 29.31702 635 ft 157 kts 62°
2026-05-01 14:18 40.90608 29.32979 1453 ft 154 kts 61°
2026-05-01 14:18 40.91051 29.34196 2286 ft 149 kts 59°
2026-05-01 14:19 40.91522 29.35460 2768 ft 163 kts 59°
2026-05-01 14:19 40.92043 29.36853 3271 ft 176 kts 60°
2026-05-01 14:19 40.92606 29.38368 3710 ft 193 kts 60°
2026-05-01 14:19 40.92987 29.40185 4037 ft 223 kts 84°
2026-05-01 14:20 40.92645 29.42276 4588 ft 248 kts 111°
2026-05-01 14:20 40.89789 29.45227 6020 ft 279 kts 152°
2026-05-01 14:20 40.88032 29.46302 6887 ft 281 kts 152°
2026-05-01 14:21 40.86266 29.47411 7724 ft 284 kts 152°
2026-05-01 14:21 40.84407 29.48228 8468 ft 291 kts 174°
2026-05-01 14:21 40.82438 29.47746 9224 ft 293 kts 208°
2026-05-01 14:22 40.79405 29.44205 10645 ft 300 kts 226°
2026-05-01 14:22 40.77872 29.42253 10999 ft 317 kts 225°
2026-05-01 14:22 40.76216 29.40199 11325 ft 334 kts 224°
2026-05-01 14:22 40.74471 29.38070 11607 ft 350 kts 224°
2026-05-01 14:23 40.72644 29.35827 11905 ft 365 kts 226°
2026-05-01 14:23 40.71203 29.33074 12376 ft 370 kts 248°
2026-05-01 14:23 40.70635 29.29794 13081 ft 368 kts 267°
2026-05-01 14:23 40.70953 29.26494 13769 ft 369 kts 285°
2026-05-01 14:24 40.71751 29.23282 14420 ft 370 kts 287°
2026-05-01 14:24 40.72557 29.20039 15006 ft 373 kts 287°
2026-05-01 14:24 40.73347 29.16812 15493 ft 378 kts 287°
2026-05-01 14:24 40.74152 29.13495 16019 ft 382 kts 287°
2026-05-01 14:25 40.74960 29.10153 16565 ft 384 kts 287°
2026-05-01 14:25 40.75767 29.06803 17076 ft 387 kts 287°
2026-05-01 14:25 40.76498 29.03382 17601 ft 388 kts 283°
2026-05-01 14:25 40.77027 28.99878 18106 ft 390 kts 278°
2026-05-01 14:26 40.77346 28.96367 18575 ft 392 kts 275°
2026-05-01 14:26 40.77770 28.89181 19546 ft 396 kts 274°
2026-05-01 14:26 40.77972 28.85594 19973 ft 398 kts 274°
2026-05-01 14:27 40.78180 28.81939 20398 ft 400 kts 274°
2026-05-01 14:27 40.78391 28.78242 20814 ft 403 kts 274°
2026-05-01 14:27 40.78599 28.74589 21225 ft 405 kts 274°
2026-05-01 14:28 40.79018 28.67141 22021 ft 409 kts 274°
2026-05-01 14:28 40.79227 28.63393 22418 ft 410 kts 274°
2026-05-01 14:28 40.79350 28.59635 22783 ft 412 kts 271°
2026-05-01 14:28 40.79319 28.55861 23099 ft 415 kts 268°
2026-05-01 14:29 40.79196 28.52096 23447 ft 417 kts 267°
2026-05-01 14:29 40.79062 28.48278 23779 ft 419 kts 267°
2026-05-01 14:30 40.78641 28.36751 24172 ft 420 kts 267°
2026-05-01 14:30 40.78499 28.32914 24175 ft 420 kts 266°
2026-05-01 14:30 40.78357 28.29062 24175 ft 419 kts 267°
2026-05-01 14:31 40.78330 28.21365 24177 ft 420 kts 271°
2026-05-01 14:31 40.78455 28.17529 24177 ft 420 kts 272°
2026-05-01 14:31 40.78585 28.13697 24176 ft 420 kts 272°
2026-05-01 14:31 40.78716 28.09849 24183 ft 420 kts 272°
2026-05-01 14:32 40.78845 28.06025 24177 ft 420 kts 272°
2026-05-01 14:32 40.78973 28.02153 24175 ft 420 kts 272°
2026-05-01 14:32 40.79098 27.98309 24170 ft 419 kts 272°
2026-05-01 14:32 40.79221 27.94492 24176 ft 419 kts 272°
2026-05-01 14:33 40.79342 27.90669 24175 ft 420 kts 272°
2026-05-01 14:33 40.79456 27.86811 24177 ft 421 kts 271°
2026-05-01 14:33 40.79504 27.82934 24171 ft 420 kts 270°
2026-05-01 14:33 40.79177 27.79173 24166 ft 421 kts 256°
2026-05-01 14:34 40.78072 27.75574 24170 ft 423 kts 242°
2026-05-01 14:34 40.76287 27.72473 24168 ft 427 kts 228°
2026-05-01 14:34 40.73930 27.70069 24176 ft 432 kts 214°
2026-05-01 14:34 40.71336 27.68165 24179 ft 433 kts 212°
2026-05-01 14:35 40.68681 27.66262 24174 ft 433 kts 212°
2026-05-01 14:35 40.66024 27.64362 24164 ft 432 kts 212°
2026-05-01 14:35 40.63389 27.62470 24168 ft 432 kts 212°
2026-05-01 14:35 40.60751 27.60588 24168 ft 433 kts 210°
2026-05-01 14:36 40.57946 27.59153 24155 ft 438 kts 200°
2026-05-01 14:36 40.54945 27.58399 24158 ft 442 kts 190°
2026-05-01 14:36 40.51841 27.58360 24153 ft 447 kts 180°
2026-05-01 14:36 40.48750 27.58711 24151 ft 447 kts 179°
2026-05-01 14:37 40.45654 27.59120 24148 ft 447 kts 179°
2026-05-01 14:37 40.42531 27.59529 24149 ft 447 kts 179°
2026-05-01 14:37 40.39431 27.59906 24144 ft 446 kts 180°
2026-05-01 14:37 40.36344 27.60059 24140 ft 444 kts 184°
2026-05-01 14:38 40.33293 27.59926 24138 ft 441 kts 188°
2026-05-01 14:38 40.30250 27.59510 24136 ft 439 kts 192°
2026-05-01 14:38 40.27209 27.58931 24140 ft 439 kts 193°
2026-05-01 14:38 40.24171 27.58342 24133 ft 439 kts 193°
2026-05-01 14:39 40.21162 27.57759 24132 ft 439 kts 193°
2026-05-01 14:39 40.18146 27.57174 24131 ft 439 kts 193°
2026-05-01 14:39 40.15132 27.56593 24131 ft 439 kts 193°
2026-05-01 14:39 40.12102 27.56010 24124 ft 439 kts 193°
2026-05-01 14:40 40.09080 27.55431 24123 ft 439 kts 193°
2026-05-01 14:40 40.06052 27.54851 24119 ft 438 kts 193°
2026-05-01 14:40 40.03038 27.54275 24122 ft 439 kts 193°
2026-05-01 14:40 40.00045 27.53702 24111 ft 438 kts 194°
2026-05-01 14:41 39.96988 27.53120 24110 ft 438 kts 194°
2026-05-01 14:41 39.93985 27.52546 24115 ft 438 kts 194°
2026-05-01 14:41 39.90990 27.51975 24108 ft 438 kts 194°
2026-05-01 14:41 39.87929 27.51393 24106 ft 438 kts 194°
2026-05-01 14:42 39.84904 27.50817 24109 ft 438 kts 194°
2026-05-01 14:42 39.81889 27.50245 24106 ft 438 kts 194°
2026-05-01 14:42 39.78891 27.49678 24105 ft 436 kts 194°
2026-05-01 14:42 39.75893 27.49110 24099 ft 437 kts 194°
2026-05-01 14:43 39.72857 27.48535 24100 ft 436 kts 194°
2026-05-01 14:43 39.69858 27.47967 24099 ft 437 kts 194°
2026-05-01 14:43 39.66862 27.47401 24084 ft 436 kts 194°
2026-05-01 14:43 39.63878 27.46840 24077 ft 435 kts 194°
2026-05-01 14:44 39.60857 27.46274 24079 ft 436 kts 194°
2026-05-01 14:44 39.54849 27.45143 24072 ft 436 kts 194°
2026-05-01 14:44 39.51886 27.44588 24069 ft 435 kts 194°
2026-05-01 14:45 39.48882 27.44027 24070 ft 434 kts 194°
2026-05-01 14:45 39.42909 27.42912 24051 ft 434 kts 195°
2026-05-01 14:45 39.39910 27.42316 24056 ft 433 kts 196°
2026-05-01 14:46 39.36975 27.41558 24058 ft 430 kts 199°
2026-05-01 14:46 39.31225 27.39544 24057 ft 427 kts 202°
2026-05-01 14:46 39.28377 27.38479 24066 ft 426 kts 202°
2026-05-01 14:47 39.25522 27.37413 24064 ft 425 kts 202°
2026-05-01 14:47 39.22679 27.36352 24065 ft 426 kts 202°
2026-05-01 14:47 39.19841 27.35294 24053 ft 425 kts 202°
2026-05-01 14:48 39.14130 27.33165 23598 ft 422 kts 202°
2026-05-01 14:48 39.11350 27.32130 23261 ft 421 kts 202°
2026-05-01 14:48 39.05740 27.30042 22320 ft 417 kts 201°
2026-05-01 14:49 39.00227 27.27994 21185 ft 409 kts 201°
2026-05-01 14:49 38.94826 27.25993 20027 ft 401 kts 201°
2026-05-01 14:50 38.90393 27.24362 19071 ft 396 kts 200°
2026-05-01 14:50 38.84091 27.23298 18269 ft 380 kts 186°
2026-05-01 14:51 38.81456 27.23301 18011 ft 370 kts 185°
2026-05-01 14:51 38.76467 27.23370 17554 ft 346 kts 185°
2026-05-01 14:52 38.71899 27.23428 17248 ft 313 kts 185°
2026-05-01 14:52 38.69756 27.23442 17113 ft 302 kts 187°
2026-05-01 14:52 38.65713 27.22733 16609 ft 289 kts 200°
2026-05-01 14:53 38.63778 27.22051 16227 ft 289 kts 201°
2026-05-01 14:53 38.61848 27.21353 15849 ft 288 kts 201°
2026-05-01 14:53 38.59920 27.20659 15485 ft 288 kts 201°
2026-05-01 14:53 38.57997 27.19974 15129 ft 287 kts 200°
2026-05-01 14:54 38.56069 27.19289 14750 ft 286 kts 200°
2026-05-01 14:54 38.54160 27.18611 14399 ft 285 kts 200°
2026-05-01 14:54 38.52234 27.17929 14046 ft 285 kts 200°
2026-05-01 14:54 38.50331 27.17257 13680 ft 284 kts 200°
2026-05-01 14:55 38.48425 27.16582 13326 ft 283 kts 200°
2026-05-01 14:55 38.46547 27.15917 12984 ft 282 kts 200°
2026-05-01 14:55 38.44640 27.15244 12627 ft 281 kts 199°
2026-05-01 14:55 38.42766 27.14582 12283 ft 280 kts 199°
2026-05-01 14:56 38.40889 27.13921 11951 ft 279 kts 199°
2026-05-01 14:56 38.39018 27.13263 11604 ft 279 kts 199°
2026-05-01 14:56 38.37166 27.12609 11264 ft 278 kts 199°
2026-05-01 14:56 38.35294 27.11951 10921 ft 278 kts 199°
2026-05-01 14:57 38.33431 27.11295 10571 ft 277 kts 199°
2026-05-01 14:57 38.29709 27.09985 9884 ft 277 kts 198°
2026-05-01 14:57 38.27860 27.09336 9544 ft 276 kts 198°
2026-05-01 14:58 38.26013 27.08688 9200 ft 276 kts 198°
2026-05-01 14:58 38.24175 27.08045 9021 ft 267 kts 198°
2026-05-01 14:58 38.22414 27.07458 8992 ft 257 kts 193°
2026-05-01 14:58 38.20630 27.07380 8883 ft 262 kts 174°
2026-05-01 14:59 38.18814 27.07838 8398 ft 268 kts 168°
2026-05-01 14:59 38.17028 27.08412 8038 ft 265 kts 166°
2026-05-01 14:59 38.15245 27.08991 7606 ft 263 kts 167°
2026-05-01 14:59 38.13462 27.09554 7143 ft 262 kts 167°
2026-05-01 15:00 38.09985 27.10618 6289 ft 256 kts 167°
2026-05-01 15:00 38.08247 27.11141 5860 ft 253 kts 167°
2026-05-01 15:00 38.06558 27.11654 5461 ft 250 kts 164°
2026-05-01 15:01 38.05038 27.12645 4995 ft 246 kts 130°
2026-05-01 15:01 38.04340 27.14521 4729 ft 234 kts 91°
2026-05-01 15:01 38.04563 27.16516 4775 ft 231 kts 72°
2026-05-01 15:01 38.05006 27.18477 4597 ft 232 kts 72°
2026-05-01 15:02 38.05490 27.20417 4342 ft 227 kts 60°
2026-05-01 15:02 38.06133 27.21433 4177 ft 219 kts 33°
2026-05-01 15:02 38.08019 27.21988 3852 ft 211 kts 351°
2026-05-01 15:02 38.09434 27.21576 3550 ft 211 kts 346°
2026-05-01 15:03 38.10834 27.21103 3408 ft 201 kts 346°
2026-05-01 15:03 38.12136 27.20672 3333 ft 189 kts 347°
2026-05-01 15:03 38.13371 27.20279 3269 ft 175 kts 348°
2026-05-01 15:03 38.14523 27.19922 3135 ft 164 kts 348°
2026-05-01 15:04 38.15620 27.19588 2882 ft 159 kts 348°
2026-05-01 15:04 38.16676 27.19270 2641 ft 153 kts 348°
2026-05-01 15:04 38.17711 27.18958 2426 ft 152 kts 349°
2026-05-01 15:04 38.18744 27.18648 2183 ft 151 kts 349°
2026-05-01 15:05 38.19717 27.18354 1953 ft 139 kts 349°
2026-05-01 15:05 38.20648 27.18073 1782 ft 136 kts 349°
2026-05-01 15:05 38.21563 27.17799 1618 ft 136 kts 349°
2026-05-01 15:05 38.22484 27.17524 1444 ft 135 kts 350°
2026-05-01 15:06 38.23396 27.17250 1268 ft 135 kts 350°
2026-05-01 15:06 38.24311 27.16976 1088 ft 134 kts 349°
2026-05-01 15:06 38.25230 27.16702 885 ft 134 kts 350°
2026-05-01 15:06 38.26126 27.16425 674 ft 133 kts 349°
2026-05-01 15:07 38.27023 27.16139 523 ft 132 kts 349°
2026-05-01 15:07 38.27924 27.15871 394 ft 130 kts 348°
2026-05-01 15:07 38.28692 27.15645 403 ft 91 kts 346°
2026-05-01 15:07 38.29145 27.15508 406 ft 44 kts 346°
2026-05-01 15:08 38.29334 27.15451 406 ft 9 kts 347°
2026-05-01 15:08 38.29384 27.15410 406 ft 9 kts 274°
2026-05-01 15:08 38.29370 27.15327 406 ft 10 kts 257°
2026-05-01 15:08 38.29353 27.15232 404 ft 12 kts 256°
2026-05-01 15:09 38.29331 27.15152 403 ft 5 kts 220°
2026-05-01 15:09 38.29313 27.15136 404 ft 0 kts 214°
2026-05-01 15:09 38.29312 27.15136 404 ft 0 kts 214°
2026-05-01 15:10 38.29310 27.15133 404 ft 0 kts 214°
2026-05-01 15:10 38.29306 27.15125 404 ft 3 kts 248°
2026-05-01 15:10 38.29300 27.15104 405 ft 3 kts 255°
2026-05-01 15:11 38.29293 27.15067 405 ft 2 kts 257°
2026-05-01 15:11 38.29292 27.15058 406 ft 0 kts 257°